VKG4746 EKCH-EFHK

Flight info

Callsign VKG4746
Flight time N/A
Altitude 39000
Route KEMAX T408 OTVEB DCT ALAMI DCT OKEVU DCT EVADI Y370 DIVAM
Aircraft A339/H-SADE1E2E3GHIJ3J5M1P2RWXY/LB2D1

Departure

Time 2026-04-22 16:14
Airport Copenhagen Kastrup Airport (EKCH)

Arrival

Time N/A
Airport Helsinki Vantaa Airport (EFHK)
Time Latitude Longitude Altitude Speed Heading
2026-04-22 15:14 55.62642 12.65056 28 ft 0 kts 279°
2026-04-22 15:59 55.62641 12.65064 28 ft 2 kts 279°
2026-04-22 16:00 55.62639 12.65090 28 ft 2 kts 279°
2026-04-22 16:00 55.62637 12.65116 28 ft 2 kts 278°
2026-04-22 16:00 55.62634 12.65142 28 ft 2 kts 279°
2026-04-22 16:00 55.62633 12.65161 28 ft 0 kts 279°
2026-04-22 16:01 55.62632 12.65185 28 ft 2 kts 258°
2026-04-22 16:01 55.62637 12.65210 28 ft 2 kts 233°
2026-04-22 16:01 55.62641 12.65218 28 ft 0 kts 225°
2026-04-22 16:01 55.62625 12.65197 28 ft 4 kts 201°
2026-04-22 16:02 55.62590 12.65195 28 ft 7 kts 177°
2026-04-22 16:02 55.62545 12.65197 28 ft 4 kts 179°
2026-04-22 16:02 55.62532 12.65197 28 ft 0 kts 179°
2026-04-22 16:05 55.62525 12.65198 28 ft 2 kts 179°
2026-04-22 16:06 55.62497 12.65199 28 ft 5 kts 179°
2026-04-22 16:06 55.62449 12.65200 28 ft 8 kts 179°
2026-04-22 16:06 55.62384 12.65202 28 ft 10 kts 178°
2026-04-22 16:06 55.62325 12.65208 28 ft 6 kts 165°
2026-04-22 16:07 55.62294 12.65277 28 ft 8 kts 85°
2026-04-22 16:07 55.62301 12.65369 28 ft 8 kts 87°
2026-04-22 16:07 55.62300 12.65488 27 ft 11 kts 92°
2026-04-22 16:07 55.62298 12.65640 26 ft 13 kts 91°
2026-04-22 16:08 55.62299 12.65803 26 ft 10 kts 88°
2026-04-22 16:08 55.62303 12.65928 25 ft 8 kts 77°
2026-04-22 16:08 55.62316 12.66035 25 ft 7 kts 103°
2026-04-22 16:08 55.62276 12.66116 25 ft 10 kts 142°
2026-04-22 16:09 55.62211 12.66180 25 ft 11 kts 156°
2026-04-22 16:09 55.62131 12.66237 25 ft 13 kts 161°
2026-04-22 16:09 55.62038 12.66289 25 ft 14 kts 163°
2026-04-22 16:09 55.61938 12.66342 25 ft 14 kts 162°
2026-04-22 16:10 55.61876 12.66378 25 ft 8 kts 161°
2026-04-22 16:10 55.61845 12.66440 25 ft 6 kts 109°
2026-04-22 16:10 55.61849 12.66523 24 ft 8 kts 80°
2026-04-22 16:10 55.61861 12.66639 24 ft 10 kts 79°
2026-04-22 16:11 55.61876 12.66779 24 ft 12 kts 79°
2026-04-22 16:11 55.61888 12.66894 24 ft 8 kts 92°
2026-04-22 16:11 55.61847 12.66977 24 ft 10 kts 162°
2026-04-22 16:11 55.61768 12.67011 24 ft 12 kts 168°
2026-04-22 16:12 55.61676 12.67041 24 ft 14 kts 170°
2026-04-22 16:12 55.61577 12.67073 24 ft 14 kts 170°
2026-04-22 16:12 55.61485 12.67108 24 ft 12 kts 168°
2026-04-22 16:12 55.61394 12.67132 24 ft 13 kts 180°
2026-04-22 16:13 55.61321 12.67100 24 ft 9 kts 205°
2026-04-22 16:13 55.61278 12.67044 24 ft 5 kts 241°
2026-04-22 16:13 55.61285 12.66970 24 ft 4 kts 301°
2026-04-22 16:13 55.61300 12.66926 24 ft 9 kts 302°
2026-04-22 16:14 55.61474 12.66452 25 ft 85 kts 304°
2026-04-22 16:14 55.61938 12.65219 66 ft 149 kts 304°
2026-04-22 16:14 55.62501 12.63691 827 ft 150 kts 304°
2026-04-22 16:14 55.63054 12.62209 1665 ft 144 kts 306°
2026-04-22 16:15 55.63623 12.60682 2107 ft 158 kts 306°
2026-04-22 16:15 55.64254 12.58983 2513 ft 176 kts 306°
2026-04-22 16:15 55.64952 12.57088 2932 ft 194 kts 306°
2026-04-22 16:15 55.65721 12.54993 3398 ft 213 kts 306°
2026-04-22 16:16 55.66559 12.52712 3896 ft 230 kts 306°
2026-04-22 16:16 55.67448 12.50292 4486 ft 243 kts 306°
2026-04-22 16:16 55.68372 12.47770 5220 ft 248 kts 306°
2026-04-22 16:16 55.69510 12.45531 5975 ft 249 kts 328°
2026-04-22 16:17 55.71096 12.44402 6769 ft 250 kts 352°
2026-04-22 16:17 55.72812 12.44587 7549 ft 255 kts 15°
2026-04-22 16:17 55.74358 12.46135 8336 ft 263 kts 40°
2026-04-22 16:17 55.75500 12.48703 9105 ft 269 kts 51°
2026-04-22 16:18 55.76574 12.51406 9883 ft 271 kts 50°
2026-04-22 16:18 55.77699 12.54052 10597 ft 273 kts 49°
2026-04-22 16:18 55.78885 12.56780 11021 ft 288 kts 49°
2026-04-22 16:18 55.80129 12.59660 11359 ft 305 kts 49°
2026-04-22 16:19 55.81455 12.62743 11685 ft 323 kts 49°
2026-04-22 16:19 55.82829 12.65951 12211 ft 333 kts 50°
2026-04-22 16:19 55.84227 12.69226 12949 ft 336 kts 50°
2026-04-22 16:19 55.85656 12.72581 13695 ft 339 kts 50°
2026-04-22 16:20 55.87071 12.75906 14402 ft 343 kts 51°
2026-04-22 16:20 55.88511 12.79306 15123 ft 346 kts 51°
2026-04-22 16:20 55.89942 12.82689 15819 ft 350 kts 51°
2026-04-22 16:20 55.91410 12.86167 16551 ft 353 kts 51°
2026-04-22 16:21 55.92872 12.89630 17277 ft 356 kts 51°
2026-04-22 16:21 55.94373 12.93195 17966 ft 359 kts 51°
2026-04-22 16:21 55.95863 12.96738 18653 ft 363 kts 51°
2026-04-22 16:21 55.97370 13.00325 19334 ft 366 kts 52°
2026-04-22 16:22 56.00433 13.07625 20681 ft 370 kts 52°
2026-04-22 16:22 56.01969 13.11297 21339 ft 372 kts 52°
2026-04-22 16:22 56.03507 13.14985 21975 ft 374 kts 53°